ASH6118 KIAH-KSAT

Flight info

Callsign ASH6118
Flight time N/A
Altitude 28000
Route PITZZ5 WAILN QERVO3
Aircraft E75L/M-SDE3GILORVW/S

Departure

Time 2026-05-07 21:07
Airport George Bush Intercontinental Airport (KIAH)

Arrival

Time N/A
Airport San Antonio International Airport (KSAT)
Time Latitude Longitude Altitude Speed Heading
2026-05-07 20:51 29.98502 -95.34737 104 ft 0 kts 44°
2026-05-07 21:00 29.98493 -95.34746 105 ft 4 kts 47°
2026-05-07 21:00 29.98479 -95.34771 105 ft 4 kts 82°
2026-05-07 21:00 29.98484 -95.34782 104 ft 1 kts 180°
2026-05-07 21:01 29.98488 -95.34782 104 ft 0 kts 180°
2026-05-07 21:03 29.98481 -95.34782 105 ft 3 kts 180°
2026-05-07 21:03 29.98430 -95.34782 105 ft 12 kts 180°
2026-05-07 21:03 29.98380 -95.34822 104 ft 9 kts 266°
2026-05-07 21:03 29.98379 -95.34927 105 ft 17 kts 270°
2026-05-07 21:04 29.98381 -95.35085 105 ft 21 kts 270°
2026-05-07 21:04 29.98407 -95.35216 105 ft 11 kts 332°
2026-05-07 21:04 29.98490 -95.35268 105 ft 16 kts 332°
2026-05-07 21:04 29.98598 -95.35334 105 ft 19 kts 332°
2026-05-07 21:05 29.98719 -95.35405 105 ft 20 kts 331°
2026-05-07 21:05 29.98843 -95.35486 105 ft 17 kts 332°
2026-05-07 21:05 29.98880 -95.35562 105 ft 11 kts 251°
2026-05-07 21:05 29.98837 -95.35658 104 ft 17 kts 242°
2026-05-07 21:06 29.98766 -95.35759 105 ft 13 kts 184°
2026-05-07 21:06 29.98634 -95.35691 105 ft 48 kts 152°
2026-05-07 21:06 29.98080 -95.35350 105 ft 131 kts 152°
2026-05-07 21:06 29.97082 -95.34753 421 ft 177 kts 148°
2026-05-07 21:07 29.95972 -95.34089 1314 ft 190 kts 149°
2026-05-07 21:07 29.94611 -95.33799 2021 ft 214 kts 184°
2026-05-07 21:07 29.93231 -95.34500 2921 ft 225 kts 214°
2026-05-07 21:07 29.92150 -95.35738 4009 ft 221 kts 232°
2026-05-07 21:08 29.91329 -95.37212 5050 ft 222 kts 237°
2026-05-07 21:08 29.90456 -95.38799 5291 ft 256 kts 238°
2026-05-07 21:08 29.89565 -95.40657 4937 ft 266 kts 242°
2026-05-07 21:08 29.88723 -95.42550 5211 ft 271 kts 242°
2026-05-07 21:09 29.87805 -95.44505 6322 ft 283 kts 241°
2026-05-07 21:09 29.86832 -95.46442 7624 ft 282 kts 240°
2026-05-07 21:09 29.85836 -95.48384 9026 ft 277 kts 242°
2026-05-07 21:09 29.84867 -95.50291 10277 ft 280 kts 241°
2026-05-07 21:10 29.83878 -95.52307 11104 ft 297 kts 242°
2026-05-07 21:10 29.82860 -95.54429 12015 ft 306 kts 241°
2026-05-07 21:10 29.82032 -95.56677 13157 ft 308 kts 255°
2026-05-07 21:10 29.81597 -95.59070 14340 ft 308 kts 257°
2026-05-07 21:11 29.81178 -95.61479 15637 ft 305 kts 256°
2026-05-07 21:11 29.80763 -95.63864 16881 ft 302 kts 256°
2026-05-07 21:11 29.79948 -95.68614 18901 ft 304 kts 256°
2026-05-07 21:12 29.79539 -95.71026 19674 ft 309 kts 256°
2026-05-07 21:12 29.79124 -95.73481 20392 ft 315 kts 257°
2026-05-07 21:12 29.78709 -95.75949 21111 ft 320 kts 257°
2026-05-07 21:12 29.78284 -95.78477 21861 ft 323 kts 257°
2026-05-07 21:13 29.77853 -95.81046 22599 ft 327 kts 257°
2026-05-07 21:13 29.77420 -95.83632 23327 ft 330 kts 257°
2026-05-07 21:13 29.76983 -95.86247 23949 ft 333 kts 257°
2026-05-07 21:13 29.76837 -95.88898 24499 ft 339 kts 269°
2026-05-07 21:14 29.76934 -95.91611 25070 ft 341 kts 268°
2026-05-07 21:14 29.77009 -95.94353 25646 ft 343 kts 268°
2026-05-07 21:14 29.77097 -95.97111 26208 ft 346 kts 269°
2026-05-07 21:14 29.77198 -95.99891 26772 ft 348 kts 269°
2026-05-07 21:15 29.77303 -96.02690 27345 ft 350 kts 269°
2026-05-07 21:15 29.77408 -96.05381 27830 ft 353 kts 269°
2026-05-07 21:15 29.77519 -96.08244 28046 ft 365 kts 269°
2026-05-07 21:15 29.77632 -96.11229 28080 ft 380 kts 269°
2026-05-07 21:16 29.77752 -96.14313 28007 ft 391 kts 269°
2026-05-07 21:16 29.77874 -96.17413 27979 ft 395 kts 269°
2026-05-07 21:16 29.78024 -96.20586 27997 ft 397 kts 271°
2026-05-07 21:16 29.78277 -96.23767 27984 ft 399 kts 271°
2026-05-07 21:17 29.78544 -96.26943 27993 ft 399 kts 271°
2026-05-07 21:17 29.78800 -96.30122 27984 ft 399 kts 271°
2026-05-07 21:17 29.79046 -96.33305 27982 ft 399 kts 271°
2026-05-07 21:17 29.79287 -96.36492 27973 ft 399 kts 271°
2026-05-07 21:18 29.79525 -96.39681 27975 ft 399 kts 271°
2026-05-07 21:18 29.79760 -96.42832 27959 ft 399 kts 271°
2026-05-07 21:18 29.79996 -96.46011 27954 ft 399 kts 271°
2026-05-07 21:18 29.80233 -96.49197 27954 ft 398 kts 271°
2026-05-07 21:19 29.80467 -96.52382 27941 ft 398 kts 271°
2026-05-07 21:19 29.80700 -96.55569 27951 ft 398 kts 271°
2026-05-07 21:19 29.80933 -96.58748 27923 ft 398 kts 271°
2026-05-07 21:19 29.81164 -96.61931 27933 ft 398 kts 271°
2026-05-07 21:20 29.81391 -96.65067 27928 ft 398 kts 271°
2026-05-07 21:20 29.81621 -96.68250 27926 ft 398 kts 271°
2026-05-07 21:20 29.81851 -96.71443 27947 ft 398 kts 271°
2026-05-07 21:20 29.82079 -96.74624 27950 ft 398 kts 271°
2026-05-07 21:21 29.82304 -96.77762 27956 ft 398 kts 271°
2026-05-07 21:21 29.82533 -96.80964 27957 ft 398 kts 271°
2026-05-07 21:21 29.82759 -96.84151 27951 ft 398 kts 271°
2026-05-07 21:21 29.82985 -96.87334 27977 ft 398 kts 271°
2026-05-07 21:22 29.83207 -96.90472 27972 ft 398 kts 271°
2026-05-07 21:22 29.83431 -96.93662 27979 ft 398 kts 271°
2026-05-07 21:22 29.83654 -96.96846 27984 ft 398 kts 271°
2026-05-07 21:22 29.83881 -97.00026 28008 ft 398 kts 271°
2026-05-07 21:23 29.84120 -97.03211 27996 ft 398 kts 271°
2026-05-07 21:23 29.84358 -97.06321 27646 ft 382 kts 271°
2026-05-07 21:23 29.84582 -97.09266 27411 ft 365 kts 271°
2026-05-07 21:23 29.84792 -97.12164 26857 ft 359 kts 270°
2026-05-07 21:24 29.84990 -97.15014 26386 ft 354 kts 270°
2026-05-07 21:24 29.85185 -97.17841 25922 ft 351 kts 270°
2026-05-07 21:24 29.85379 -97.20637 25452 ft 350 kts 270°
2026-05-07 21:24 29.85570 -97.23393 25005 ft 349 kts 270°
2026-05-07 21:25 29.85766 -97.26212 24530 ft 347 kts 271°
2026-05-07 21:25 29.85956 -97.28951 24069 ft 346 kts 271°
2026-05-07 21:25 29.86147 -97.31708 23634 ft 344 kts 271°
2026-05-07 21:25 29.86337 -97.34462 23164 ft 341 kts 271°
2026-05-07 21:26 29.86524 -97.37177 22715 ft 339 kts 270°
2026-05-07 21:26 29.86707 -97.39851 22286 ft 336 kts 270°